| time (UTC) | temp F | wind direction | speed MPH | gust MPH | rain 1hr in | rain 24hr in | rain mn in | humidity % | barometer mb |
| 20260904101535 | 80 | 197 | 8.0 | 19.0 | 0.00 | 0.00 | 0.00 | 57 | 1014.5 |
| 20260904100032 | 79 | 207 | 11.0 | 18.0 | 0.00 | 0.00 | 0.00 | 58 | 1014.8 |
| 20260904094539 | 79 | 360 | 8.0 | 15.0 | 0.00 | 0.00 | 0.00 | 60 | 1015.0 |
| 20260904093022 | 78 | 360 | 10.0 | 19.0 | 0.00 | 0.00 | 0.00 | 60 | 1015.1 |
| 20260904091525 | 78 | 177 | 10.0 | 18.0 | 0.00 | 0.00 | 0.00 | 62 | 1015.3 |
| 20260904090016 | 77 | 161 | 6.0 | 13.0 | 0.00 | 0.00 | 0.00 | 65 | 1015.7 |
| 20260904084510 | 75 | 176 | 0.0 | 0.0 | 0.00 | 0.00 | 0.00 | 68 | 1016.0 |
| 20260904083005 | 72 | 196 | 0.0 | 0.0 | 0.00 | 0.00 | 0.00 | 71 | 1016.2 |
| 20260904081602 | 71 | 176 | 0.0 | 0.0 | 0.00 | 0.00 | 0.00 | 72 | 1016.4 |
| 20260904080104 | 70 | 178 | 0.0 | 0.0 | 0.00 | 0.00 | 0.00 | 72 | 1016.5 |
| 20260904074556 | 69 | 177 | 0.0 | 0.0 | 0.00 | 0.00 | 0.00 | 73 | 1016.7 |
| 20260904073101 | 69 | 170 | 0.0 | 0.0 | 0.00 | 0.00 | 0.00 | 73 | 1016.6 |
| 20260904071548 | 69 | 360 | 0.0 | 0.0 | 0.00 | 0.00 | 0.00 | 75 | 1016.7 |
| 20260904070046 | 68 | 360 | 0.0 | 0.0 | 0.00 | 0.00 | 0.00 | 76 | 1016.9 |
| 20260904064543 | 67 | 360 | 0.0 | 0.0 | 0.00 | 0.00 | 0.00 | 77 | 1017.0 |
| 20260904063106 | 67 | 202 | 0.0 | 0.0 | 0.00 | 0.00 | 0.00 | 79 | 1016.9 |
| 20260904061549 | 66 | 240 | 0.0 | 0.0 | 0.00 | 0.00 | 0.00 | 80 | 1016.9 |
| 20260904060105 | 65 | 229 | 0.0 | 0.0 | 0.00 | 0.00 | 0.00 | 81 | 1017.1 |
| 20260904054550 | 64 | 209 | 0.0 | 0.0 | 0.00 | 0.00 | 0.00 | 81 | 1016.8 |
| 20260904053043 | 64 | 230 | 0.0 | 0.0 | 0.00 | 0.00 | 0.00 | 82 | 1017.1 |
| 20260904051542 | 63 | 231 | 0.0 | 0.0 | 0.00 | 0.00 | 0.00 | 81 | 1017.0 |
| 20260904050044 | 63 | 215 | 0.0 | 0.0 | 0.00 | 0.00 | 0.00 | 80 | 1017.0 |
| 20260904044538 | 64 | 214 | 0.0 | 0.0 | 0.00 | 0.00 | 0.00 | 79 | 1017.0 |
| 20260904043036 | 64 | 212 | 0.0 | 0.0 | 0.00 | 0.00 | 0.00 | 79 | 1017.0 |
| 20260904041536 | 64 | 209 | 0.0 | 0.0 | 0.00 | 0.00 | 0.00 | 79 | 1017.0 |
| 20260904040040 | 64 | 230 | 0.0 | 0.0 | 0.00 | 0.00 | 0.00 | 80 | 1017.2 |
| 20260904034532 | 63 | 231 | 0.0 | 0.0 | 0.00 | 0.00 | 0.00 | 80 | 1017.3 |
| 20260904033034 | 63 | 215 | 0.0 | 0.0 | 0.00 | 0.00 | 0.00 | 80 | 1017.3 |
| 20260904031529 | 63 | 213 | 0.0 | 0.0 | 0.00 | 0.00 | 0.00 | 80 | 1017.4 |
| 20260904030028 | 63 | 212 | 0.0 | 0.0 | 0.00 | 0.00 | 0.00 | 81 | 1017.6 |
| 20260904024526 | 63 | 212 | 0.0 | 0.0 | 0.00 | 0.00 | 0.00 | 81 | 1017.7 |
| 20260904023026 | 62 | 212 | 0.0 | 0.0 | 0.00 | 0.00 | 0.00 | 82 | 1017.8 |
| 20260904021539 | 61 | 231 | 0.0 | 0.0 | 0.00 | 0.00 | 0.00 | 83 | 1017.8 |
| 20260904020024 | 61 | 215 | 0.0 | 0.0 | 0.00 | 0.00 | 0.00 | 83 | 1018.0 |
| 20260904014523 | 60 | 213 | 0.0 | 0.0 | 0.00 | 0.00 | 0.00 | 83 | 1018.2 |
| 20260904013022 | 60 | 211 | 0.0 | 0.0 | 0.00 | 0.00 | 0.00 | 83 | 1017.9 |
| 20260904011521 | 60 | 210 | 0.0 | 0.0 | 0.00 | 0.00 | 0.00 | 82 | 1018.1 |
| 20260904010019 | 61 | 230 | 0.0 | 0.0 | 0.00 | 0.00 | 0.00 | 81 | 1017.9 |
| 20260904004522 | 61 | 230 | 0.0 | 0.0 | 0.00 | 0.00 | 0.00 | 81 | 1018.1 |
| 20260904003022 | 62 | 232 | 0.0 | 0.0 | 0.00 | 0.00 | 0.00 | 80 | 1018.0 |
| 20260904001512 | 62 | 214 | 0.0 | 0.0 | 0.00 | 0.00 | 0.00 | 80 | 1018.2 |
| 20260904000010 | 62 | 213 | 0.0 | 0.0 | 0.00 | 0.00 | 0.00 | 80 | 1018.5 |
| 20260903234507 | 63 | 213 | 0.0 | 0.0 | 0.00 | 0.00 | 0.00 | 78 | 1018.6 |
| 20260903233005 | 63 | 215 | 0.0 | 0.0 | 0.00 | 0.00 | 0.00 | 77 | 1018.7 |
| 20260903231503 | 64 | 215 | 0.0 | 0.0 | 0.00 | 0.00 | 0.00 | 76 | 1018.6 |
| 20260903230059 | 65 | 232 | 0.0 | 0.0 | 0.00 | 0.00 | 0.00 | 74 | 1018.7 |
| 20260903224556 | 66 | 231 | 0.0 | 0.0 | 0.00 | 0.00 | 0.00 | 73 | 1018.8 |
| 20260903223052 | 67 | 230 | 0.0 | 0.0 | 0.00 | 0.00 | 0.00 | 71 | 1018.8 |
| 20260903221550 | 68 | 230 | 0.0 | 0.0 | 0.00 | 0.00 | 0.00 | 70 | 1018.8 |
| 20260903220048 | 68 | 231 | 0.0 | 0.0 | 0.00 | 0.00 | 0.00 | 69 | 1018.9 |
| 20260903214546 | 68 | 215 | 0.0 | 0.0 | 0.00 | 0.00 | 0.00 | 68 | 1018.9 |
| 20260903213052 | 69 | 213 | 0.0 | 0.0 | 0.00 | 0.00 | 0.00 | 67 | 1019.0 |
| 20260903211545 | 69 | 211 | 0.0 | 0.0 | 0.00 | 0.00 | 0.00 | 66 | 1018.9 |
| 20260903210046 | 70 | 230 | 0.0 | 0.0 | 0.00 | 0.00 | 0.00 | 65 | 1019.0 |
| 20260903204544 | 69 | 229 | 0.0 | 0.0 | 0.00 | 0.00 | 0.00 | 66 | 1019.0 |
| 20260903203051 | 69 | 213 | 0.0 | 0.0 | 0.00 | 0.00 | 0.00 | 66 | 1018.9 |
| 20260903201541 | 69 | 213 | 0.0 | 0.0 | 0.00 | 0.00 | 0.00 | 66 | 1018.8 |
| 20260903200040 | 69 | 242 | 0.0 | 0.0 | 0.00 | 0.00 | 0.00 | 65 | 1018.5 |
| 20260903194539 | 70 | 210 | 0.0 | 0.0 | 0.00 | 0.00 | 0.00 | 64 | 1018.6 |
| 20260903193038 | 69 | 229 | 0.0 | 0.0 | 0.00 | 0.00 | 0.00 | 65 | 1018.8 |
| 20260903191541 | 69 | 213 | 0.0 | 0.0 | 0.00 | 0.00 | 0.00 | 67 | 1018.7 |
| 20260903190037 | 69 | 213 | 0.0 | 0.0 | 0.00 | 0.00 | 0.00 | 67 | 1018.7 |
| 20260903184537 | 70 | 213 | 0.0 | 0.0 | 0.00 | 0.00 | 0.00 | 66 | 1018.5 |
| 20260903183037 | 70 | 234 | 0.0 | 0.0 | 0.00 | 0.00 | 0.00 | 65 | 1018.3 |
| 20260903181634 | 71 | 234 | 0.0 | 0.0 | 0.00 | 0.00 | 0.00 | 63 | 1018.4 |
| 20260903180035 | 71 | 214 | 0.0 | 0.0 | 0.00 | 0.00 | 0.00 | 61 | 1018.3 |
| 20260903174534 | 71 | 213 | 0.0 | 0.0 | 0.00 | 0.00 | 0.00 | 60 | 1018.3 |
| 20260903173033 | 72 | 212 | 0.0 | 0.0 | 0.00 | 0.00 | 0.00 | 59 | 1018.4 |
| 20260903171541 | 73 | 231 | 6.0 | 16.0 | 0.00 | 0.00 | 0.00 | 57 | 1018.4 |
| 20260903170034 | 73 | 225 | 11.0 | 17.0 | 0.00 | 0.00 | 0.00 | 55 | 1018.5 |
| 20260903164530 | 74 | 182 | 4.0 | 13.0 | 0.00 | 0.00 | 0.00 | 55 | 1018.3 |
| 20260903163028 | 74 | 182 | 7.0 | 12.0 | 0.00 | 0.00 | 0.00 | 55 | 1018.2 |
| 20260903161528 | 74 | 177 | 4.0 | 9.0 | 0.00 | 0.00 | 0.00 | 55 | 1018.3 |
| 20260903160027 | 73 | 360 | 3.0 | 15.0 | 0.00 | 0.00 | 0.00 | 55 | 1018.3 |
| 20260903154526 | 73 | 360 | 4.0 | 10.0 | 0.00 | 0.00 | 0.00 | 56 | 1018.4 |
| 20260903153025 | 73 | 177 | 3.0 | 9.0 | 0.00 | 0.00 | 0.00 | 57 | 1018.4 |
| 20260903151526 | 74 | 154 | 5.0 | 9.0 | 0.00 | 0.00 | 0.00 | 56 | 1018.3 |
| 20260903150023 | 74 | 160 | 4.0 | 9.0 | 0.00 | 0.00 | 0.00 | 56 | 1018.5 |
| 20260903144522 | 74 | 160 | 4.0 | 10.0 | 0.00 | 0.00 | 0.00 | 57 | 1018.6 |
| 20260903143019 | 73 | 182 | 4.0 | 8.0 | 0.00 | 0.00 | 0.00 | 57 | 1018.8 |
| 20260903141519 | 73 | 360 | 6.0 | 12.0 | 0.00 | 0.00 | 0.00 | 56 | 1019.0 |
| 20260903140018 | 73 | 188 | 5.0 | 10.0 | 0.00 | 0.00 | 0.00 | 55 | 1019.0 |
| 20260903134517 | 74 | 211 | 6.0 | 13.0 | 0.00 | 0.00 | 0.00 | 55 | 1019.2 |
| 20260903133015 | 74 | 175 | 7.0 | 16.0 | 0.00 | 0.00 | 0.00 | 54 | 1019.2 |
| 20260903131516 | 74 | 360 | 7.0 | 15.0 | 0.00 | 0.00 | 0.00 | 55 | 1019.4 |
| 20260903130013 | 74 | 218 | 6.0 | 16.0 | 0.00 | 0.00 | 0.00 | 54 | 1019.3 |
| 20260903124511 | 74 | 178 | 5.0 | 13.0 | 0.00 | 0.00 | 0.00 | 55 | 1019.3 |
| 20260903123012 | 73 | 360 | 12.0 | 18.0 | 0.00 | 0.00 | 0.00 | 54 | 1019.2 |
| 20260903121522 | 73 | 227 | 5.0 | 12.0 | 0.00 | 0.00 | 0.00 | 54 | 1019.3 |
| 20260903120010 | 74 | 217 | 4.0 | 10.0 | 0.00 | 0.00 | 0.00 | 53 | 1019.4 |
| 20260903114508 | 74 | 202 | 8.0 | 12.0 | 0.00 | 0.00 | 0.00 | 53 | 1019.5 |
| 20260903113009 | 75 | 360 | 6.0 | 12.0 | 0.00 | 0.00 | 0.00 | 52 | 1019.7 |
| 20260903111505 | 74 | 360 | 5.0 | 12.0 | 0.00 | 0.00 | 0.00 | 55 | 1019.7 |
| 20260903110002 | 74 | 360 | 5.0 | 11.0 | 0.00 | 0.00 | 0.00 | 55 | 1019.9 |
| 20260903104558 | 73 | 220 | 5.0 | 10.0 | 0.00 | 0.00 | 0.00 | 55 | 1020.1 |
| 20260903103055 | 70 | 191 | 3.0 | 6.0 | 0.00 | 0.00 | 0.00 | 58 | 1020.2 |